fbpx

Aeronaves

Nuestra Flota

En el Centro de Instrucción de Aeronáutica Civil del Aeroclub de Mar del Plata contamos con 2 aviones Cessna 150 que es un avión biplaza  equipado con tren de aterrizaje fijo en triciclo y ala alta, diseñado originalmente para labores de entrenamiento, turismo y uso personal. 

Nuestros aviones cessna 150 son:

Cessna 150 – LV−LLD,  Biplaza tren triciclo

Cessna 150 – LV−BPG,  Biplaza tren triciclo. 

Cessna 150 – LV−CLH,  Biplaza tren triciclo. 

Cessna 172 LV – GNZ Cuatriplaza tren triciclo

Además contamos con 1 avión Piper PA 11, un avión biplaza en tándem, con ala alta, diseñado para entrenamiento y perfeccionamiento de los pilotos

Piper PA11 – LV −YJI, Biplaza tren convencional.

 

Facebook Aeroclub Mar del Plata

Informe Climatico
MAR DEL PLATA AR
Metar
SAZM 191000Z 29004KT 250V310 9999 SCT047 18/17 Q1007

10:00 UTC

Wind: 290° 4kt

Visibility: 9999 m

Sky: SCT 4700 ft

Temp: 18 deg C / 64.4 deg F

Dewpoint: 17 deg C / 62.6 deg F

Pressure: 1007 hPa

TAF
TAF SAZM 190500Z 1906/2006 18010G20KT 9999 SCT030 BKN080 TX26/1918Z TN19/1910Z BECMG 1908/1910 14010KT CAVOK